Regional Weather Roundup
Issued by NWS

Home | Current Version | Previous Version | Text Only | Print | Product List | Glossary Off
Versions: 1 2 3 4 5 6 7 8 9 10 11 12 13 14 15 16 17 18 19 20 21 22 23 24 25 26 27 28 29 30 31 32 33 34 35 36 37 38 39 40 41 42 43 44 45 46 47 48 49 50

000
ASUS43 KMPX 202101
RWRMN
WEATHER ROUNDUP FOR MINNESOTA
NATIONAL WEATHER SERVICE TWIN CITIES/CHANHASSEN MN
300 PM CST TUE FEB 20 2018


NOTE: "FAIR" INDICATES FEW OR NO CLOUDS BELOW 12,000 FEET WITH NO
SIGNIFICANT WEATHER AND/OR OBSTRUCTIONS TO VISIBILITY. N/A MEANS
CURRENT SKY AND/OR WEATHER CONDITIONS ARE NOT AVAILABLE.

MNZ060>063-068>070-202200-
   Twin Cities Metro

CITY           SKY/WX    TMP DP  RH WIND       PRES   REMARKS
TWIN CITIES    CLOUDY    20  13  74 W16       30.01R WCI   6
ST PAUL        CLOUDY    20  12  71 NW14      30.03R WCI   7
CRYSTAL        CLOUDY    20   9  62 W17       30.01R WCI   5
BLAINE         PTSUNNY   21  12  68 W15       30.00R WCI   8
LAKEVILLE      CLOUDY    18  12  79 W10       30.00R WCI   6
EDEN PRAIRIE   FAIR      20   9  62 W14G24    30.01R WCI   7
SOUTH ST PAUL  CLOUDY    21  14  74 W12       30.00R WCI   9
LAKE ELMO      CLOUDY    21  14  73 W7        29.99R WCI  13
$$
MNZ001>005-007-008-013>017-022>024-027-028-202200-
   Northwest Minnesota

CITY           SKY/WX    TMP DP  RH WIND       PRES   REMARKS
BEMIDJI        CLOUDY    10   3  74 W14       29.99R WCI  -7
HALLOCK        FAIR      10   3  72 NW8       30.08S WCI  -1
ROSEAU         FAIR      10   3  72 W12       30.02S WCI  -4
WARROAD        FAIR      10   3  72 W6        30.01S WCI   1
CROOKSTON      FAIR      10   3  72 NW14      30.11R WCI  -5
FOSSTON        FAIR      10   0  61 W10       30.05R WCI  -3
DETROIT LAKES  LGT SNOW   9   3  78 NW18      30.06R WCI -10
MOORHEAD       PTSUNNY   10   1  67 NW15      30.14R WCI  -6
PARK RAPIDS    CLOUDY    13   4  67 W17       29.99R WCI  -4
MAHNOMEN       FAIR       8   1  74 NW15      30.05R WCI -10
$$
MNZ006-009>011-018-025>026-202200-
   North Central Minnesota

CITY           SKY/WX    TMP DP  RH WIND       PRES   REMARKS
BAUDETTE       PTSUNNY    9   3  77 NW10      29.97R HAZE    WCI  -5
FLAG ISLAND    CLOUDY     9   3  78 NW12      29.98S HAZE    WCI  -6
INTL FALLS     CLOUDY    10   2  69 NW10      29.95R WCI  -4
WASKISH        CLOUDY    12   7  79 W8        29.98R WCI   1
BIG FORK       FLURRIES  14   7  73 NW7       29.95R WCI   4
LONGVILLE      FAIR      14   3  62 NW10      29.97R WCI   1
GRAND RAPIDS   CLOUDY    12   5  73 NW14      29.96R WCI  -3
CRANE LAKE     LGT SNOW   9   1  72 W5        29.96R WCI   0
ORR            MIX PCPN  10   1  67 W13       29.90R WCI  -5
COOK           FLURRIES  10   3  72 W10       29.91R WCI  -3
WALKER         CLOUDY    12   2  65 NW12G18   29.97R WCI  -2
$$
MNZ012-019>021-037-202200-
   Northeast Minnesota

CITY           SKY/WX    TMP DP  RH WIND       PRES   REMARKS
DULUTH         CLOUDY    16   8  71 W9        29.88R WCI   4
ELY            FLURRIES  10   3  72 W10       29.89R WCI  -3
HIBBING        CLOUDY    11   3  70 NW15      29.92R WCI  -5
EVELETH        FAIR     N/A N/A N/A W12       29.91R
DULUTH HARBOR  CLOUDY    18  12  79 SW8       29.96R WCI   7
TWO HARBORS    PTSUNNY   21  12  68 W5        29.88R WCI  15
GRAND MARAIS     N/A     16   7  67 VRB7      29.91R WCI   6
G MARAIS ARPRT LGT SNOW   7   0  72 CALM      29.80R
$$
MNZ029>031-032-039>041-046>048-054>057-064-202200-
   West Central Minnesota

CITY           SKY/WX    TMP DP  RH WIND       PRES   REMARKS
FERGUS FALLS   FAIR       9   1  72 NW18      30.11R HAZE    WCI -10
WHEATON        FAIR      10   1  67 W17G24    30.16R WCI  -7
MORRIS         CLOUDY    10   3  72 NW23G29   30.10R HAZE    WCI -10
ALEXANDRIA     FAIR      12   3  67 W21G28    30.05R WCI  -7
ELBOW LAKE     PTSUNNY    9   3  77 W17       30.11R HAZE    WCI  -9
WADENA         FLURRIES  10   1  67 NW13G18   30.03R WCI  -5
GLENWOOD       LGT SNOW  10   5  79 NW23      30.05R WCI -10
APPLETON       CLOUDY    12   5  73 NW18      30.13R WCI  -5
BENSON         CLOUDY    10   3  72 N20G28    30.11R HAZE    WCI  -8
ORTONVILLE     PTSUNNY   12   3  67 NW21G28   30.12R WCI  -6
MADISON          N/A     16   7  67 NW21      30.14R WCI  -2
WILLMAR        PTSUNNY   10   5  79 NW22      30.09R WCI  -9
$$
MNZ033>034-036-042>043-049>051-058-059-202200-
   Central Minnesota

CITY           SKY/WX    TMP DP  RH WIND       PRES   REMARKS
ST CLOUD       PTSUNNY   17   8  67 NW16G26   30.00R WCI   2
SAUK CENTRE    FAIR      14   5  69 NW16      30.04R WCI  -2
PAYNESVILLE    PTSUNNY   14   8  75 NW16      30.04R WCI  -2
AITKIN         PTSUNNY   18   5  57 W9        29.94R WCI   6
PINE RIVER     FLURRIES  16   5  62 NW9       30.01R WCI   4
BRAINERD       FAIR      17   5  59 NW8G21    29.98R WCI   7
STAPLES        FAIR      14   3  62 NW14      30.00R HAZE    WCI  -1
LONG PRAIRIE   FAIR      14   5  67 W16       30.02R WCI  -2
LITTLE FALLS   PTSUNNY   18   1  49 NW13G21   30.00R WCI   4
LITCHFIELD     PTSUNNY   16   9  73 W13G25    30.03R WCI   2
BUFFALO        FAIR      19   8  64 W14       30.04R WCI   5
MAPLE LAKE     PTSUNNY   20  11  68 W12G18    30.04R WCI   8
HUTCHINSON     FAIR      16   9  73 W20       30.07R WCI  -1
$$
MNZ037-044-045-052-053-202200-
   East Central Minnesota

CITY           SKY/WX    TMP DP  RH WIND       PRES   REMARKS
PRINCETON      FAIR      21   9  58 W15       30.00R WCI   8
MORA           CLOUDY    21  10  63 NW10      29.98R WCI  10
CAMBRIDGE      FAIR      19   9  63 W12       30.00R WCI   7
RUSH CITY      CLOUDY    20  10  66 W8        29.99R WCI  10
MOOSE LAKE     CLOUDY    19   9  63 NW7       29.93R WCI  10
HINCKLEY       CLOUDY    19  10  68 W6        29.97R WCI  11
CLOQUET        CLOUDY    16   7  67 W9        29.90R WCI   4
MCGREGOR       FAIR      19   9  63 W10G17    29.95R WCI   8
$$
MNZ071>073-080-081-089-090-097-098-202200-
   Southwest Minnesota

CITY           SKY/WX    TMP DP  RH WIND       PRES   REMARKS
MONTEVIDEO     CLOUDY    16   7  67 N22       30.11R WCI  -2
GRANITE FALLS  FAIR      15   8  73 W20       30.14R WCI  -2
CANBY          PTSUNNY   15   6  68 W17G24    30.14R WCI  -2
MARSHALL       PTSUNNY   12   5  73 NW18      30.14R WCI  -6
REDWOOD FALLS  PTSUNNY   14   5  67 NW18      30.12R WCI  -3
OLIVIA         FAIR      12   5  73 NW21G29   30.08R WCI  -6
PIPESTONE      FAIR      12   5  73 NW16G24   30.11R WCI  -4
WINDOM         PTSUNNY   12  -2  52 CALM      30.10R HAZE
WORTHINGTON    FAIR      12   6  77 NW25      30.10S WCI  -8
JACKSON        CLOUDY    12   7  79 NW16G28   30.10R WCI  -4
TRACY          FAIR      13   7  78 NW18      30.12R WCI  -4
SLAYTON        FAIR      11   5  77 NW23      30.09R WCI  -9
$$
MNZ065>067-074>077-082>085-091>093-202200-
   South Central Minnesota

CITY           SKY/WX    TMP DP  RH WIND       PRES   REMARKS
MANKATO        FLURRIES  15   8  73 NW23G30   30.06R WCI  -3
NEW ULM        LGT SNOW  12   9  85 W25       30.08R VSB 1   WCI  -8
ST JAMES       CLOUDY    14   9  79 W17G23    30.12R WCI  -3
FAIRMONT       FLURRIES  14   8  77 NW22G31   30.11R WCI  -4
GLENCOE        CLOUDY    17  10  75 W23       30.05R WCI  -1
FARIBAULT      FLURRIES  18  12  79 W9        30.02R WCI   6
OWATONNA       FLURRIES  18  12  79 CALM      30.03R
WASECA         PTSUNNY   18  12  79 W12       30.06R WCI   5
ALBERT LEA     CLOUDY    16  10  79 W8        30.02R WCI   5
$$
MNZ078>079-086>088-094>096-202200-
   Southeast Minnesota

CITY           SKY/WX    TMP DP  RH WIND       PRES   REMARKS
ROCHESTER      CLOUDY    19  16  88 W17       29.99R WCI   4
RED WING       CLOUDY    21  12  68 W10       30.00R WCI  10
STANTON        CLOUDY    21  14  75 W9        29.99R WCI  10
DODGE CENTER   CLOUDY    18  12  79 W8        29.99R WCI   7
WINONA         CLOUDY    23  19  86 W10       29.98R WCI  12
AUSTIN         FLURRIES  18  12  79 W8        30.02R WCI   7
PRESTON        CLOUDY    20  16  85 NW9       29.98R WCI   9
$$
ABBREVIATIONS USED IN REMARKS
   TC - TEMPERATURES IN CELSIUS
  WCI - WIND CHILL INDEX
   HX - HEAT INDEX
  VSB - VISIBILITY
$$



USA.gov is the U.S. government's official web portal to all federal, state and local government web resources and services.